Location: Spruce Knob
(38.6995°N, 79.5330°W)
Time: 22:08:09
(UTC-04:00)

A-11 Canister half - Pass Details

Date: 03 February 2022
Orbit: 1513 x 1686 km, 47.2° (Epoch: 24 May)

Event Time Altitude Azimuth Distance (km) Brightness Sun altitude
Rises 23:04:31 0° 289° (WNW) 4,663 11.9 -60.5°
Enters shadow 23:08:08 - 274° (W) 3,847 11.3 -61.0°
Reaches altitude 10° 23:09:07 10° 269° (W) 3,669 - -61.1°
Maximum altitude 23:14:03 16° 236° (SW) 3,224 - -61.8°
Drops below altitude 10° 23:19:00 10° 203° (SSW) 3,672 - -62.4°
Sets 23:23:40 0° 183° (S) 4,669 - -63.0°
